Cloud_Cover
0 0 0 0 0 96 100 100 64 31 100 100 100 76 100 100 100 100 100 100 100 100 100 100 100 100 100 70 6 14 19 41 100 100 100 4 0 0 0 0 0 0 35
0 0 0 0 0 0 100 100 100 93 40 68 100 100 97 100 100 100 100 100 100 100 100 100 100 100 95 6 7 5 8 97 100 100 100 1 0 0 0 5 0 18 37
0 0 0 0 0 0 60 100 100 100 100 100 100 71 100 74 100 100 100 100 100 100 100 100 95 99 6 18 5 5 51 100 100 100 87 0 0 0 3 5 0 1 14
0 0 0 0 0 0 3 97 100 86 92 100 84 100 74 98 100 100 100 100 100 100 100 63 97 98 100 65 27 96 56 100 100 100 0 0 3 2 5 5 5 28 5
0 0 0 0 0 0 0 16 100 100 80 21 36 100 94 65 100 100 100 100 100 91 100 100 100 100 100 100 100 100 100 100 100 89 2 3 15 42 5 5 17 58 16
0 0 0 0 0 0 0 0 21 100 100 100 100 100 100 83 5 5 83 100 100 77 100 95 100 100 100 100 100 100 100 100 97 0 0 5 1 5 5 5 20 53 38
0 0 0 0 0 0 0 11 7 0 96 100 100 100 100 100 47 12 100 4 3 37 26 98 95 92 100 100 100 100 100 2 0 0 0 1 8 5 5 7 5 5 5
0 0 0 0 0 0 0 89 68 0 2 100 100 100 100 92 100 28 79 98 22 92 98 100 100 100 100 100 100 100 32 0 0 0 0 4 5 64 5 5 5 20 31
0 0 0 0 0 0 0 25 96 9 0 0 8 100 100 100 85 7 6 33 97 100 100 100 100 100 100 100 100 5 8 5 83 100 49 11 69 49 5 35 8 11 88
6 8 6 0 1 0 0 5 70 0 0 0 0 76 100 100 100 52 46 52 88 100 100 100 100 100 100 100 39 0 6 1 0 1 7 48 21 61 82 7 5 56 68
13 29 100 100 95 5 4 27 19 12 0 0 0 1 94 100 100 100 83 100 100 100 100 100 100 100 97 100 83 0 13 5 30 25 26 36 6 5 5 5 5 22 97
91 100 100 100 100 20 66 92 100 47 4 0 0 0 7 100 100 100 100 100 100 100 100 100 100 100 100 100 81 99 100 75 11 20 100 95 100 14 5 5 5 7 10
100 100 100 100 100 100 64 90 99 22 0 0 0 0 32 100 100 100 100 100 100 100 100 100 100 100 100 100 100 100 99 13 23 51 100 100 79 8 9 89 5 5 5
100 100 100 98 90 96 97 29 0 0 0 0 0 0 48 100 99 100 100 100 100 100 100 100 86 100 58 98 93 87 19 18 98 93 99 100 100 85 5 5 5 0 4
100 98 100 10 22 18 5 2 0 0 0 0 0 1 87 100 100 100 100 100 100 100 73 72 90 28 26 13 1 8 18 91 66 67 99 88 100 80 33 5 5 5 5
100 46 5 8 5 4 0 1 98 97 84 72 92 100 100 100 100 100 100 100 99 98 100 11 19 5 3 7 5 10 76 100 100 92 100 95 100 100 100 89 23 5 58
100 93 55 57 12 4 0 9 70 74 100 100 100 100 100 100 100 100 100 100 100 44 1 0 5 5 5 5 5 5 5 5 6 49 97 100 100 100 100 100 100 16 26
100 100 100 13 36 36 89 100 100 100 100 100 100 100 100 100 100 100 99 57 30 36 4 5 5 5 5 18 5 8 87 31 24 42 100 100 100 100 97 19 38 99 49
100 93 88 100 100 100 100 100 100 100 100 100 100 100 100 100 100 100 9 0 0 3 5 5 5 5 5 5 5 69 100 100 63 100 100 100 93 82 49 6 44 74 51
100 99 97 85 100 100 100 100 100 100 100 100 100 100 75 28 89 100 39 0 6 11 5 78 5 5 5 7 30 100 100 100 68 100 100 44 11 87 79 80 24 34 51
100 100 100 100 100 100 100 100 100 100 100 100 100 100 99 45 100 100 77 72 43 6 26 44 50 50 85 99 100 100 100 68 69 23 16 25 91 26 24 53 38 95 58
100 98 100 100 100 100 100 100 100 100 100 100 100 100 100 96 100 100 100 100 82 36 17 7 20 64 84 44 28 8 64 44 88 77 10 92 42 14 64 76 88 100 100
100 100 100 100 100 100 100 100 100 100 100 100 100 100 100 100 100 100 100 100 98 71 61 89 97 64 60 58 23 17 5 23 32 11 5 24 69 100 56 57 100 70 32
100 100 100 100 91 100 100 100 100 100 100 100 100 100 100 100 100 100 99 100 100 100 100 100 100 100 79 100 68 6 40 48 10 58 83 94 93 66 12 2 4 5 11
79 70 84 98 96 100 100 100 100 83 90 100 100 100 100 100 100 100 100 100 100 100 84 100 100 100 100 100 90 45 100 52 94 46 36 46 5 2 5 6 40 23 40
8 40 90 15 64 100 100 100 100 100 100 100 100 100 100 100 100 100 99 100 89 46 99 88 75 75 76 58 92 90 6 14 100 88 13 11 79 65 70 76 37 14 9